Вернуться в каталог

THORAD AGENA D DEB

АктивенLEO
NORAD 5446·DEBRIS·🇺🇸 United States

Запущен Apr 8, 1970 с Vandenberg Space Force Base

Loading…

Ближайшие Пролёты (ближайшие 24 часа)

TLE

СвежийSource: Space-Track

Эпоха: Sep 14, 2026, 04:00 UTC

1 05446U 70025LE  26257.16674002  .00001730  00000-0  17861-2 0  9997
2 05446 100.4379 135.6286 0085045  25.7971 125.3882 13.76047170787905

Отслеживайте THORAD AGENA D DEB в реальном времени с AllMySat

Download on the App Store